Regional Weather Roundup
Issued by NWS

Home | Current Version | Previous Version | Text Only | Print | Product List | Glossary On
Versions: 1 2 3 4 5 6 7 8 9 10 11 12 13 14 15 16 17 18 19 20 21 22 23 24 25 26 27 28 29 30 31 32 33 34 35 36 37 38 39 40 41 42 43 44 45 46 47 48 49 50
000
ASHW40 PHFO 061643
RWRHI

WEATHER ROUNDUP FOR HAWAII
NATIONAL WEATHER SERVICE HONOLULU HI
600 AM HST WED MAY 06 2015

THIS IS AN AUTOMATED REPORT THAT HAS NOT BEEN QUALITY CONTROLLED.

NOTE..."FAIR" INDICATES FEW OR NO CLOUDS BELOW 12,000 FEET WITH NO
SIGNIFICANT WEATHER AND/OR OBSTRUCTIONS TO VISIBILITY.

* - THESE SITES REPORT LIMITED FIELDS

HIZ001>004-061700-
KAUAI-NIIHAU-

CITY           SKY/WX    TMP DP  RH WIND       PRES   REMARKS
LIHUE APT      MOCLDY    73  66  78 E10       30.05S
PORT ALLEN*      N/A     72 N/A N/A E13         N/A
POIPU*           N/A     73 N/A N/A NE7G14      N/A
PRINCEVILLE*     N/A     68 N/A N/A MISG        N/A
KOKOLE POINT*  NOT AVBL
MOLOAA DAIRY*  NOT AVBL
WAIMEA HTS*      N/A     70  57  64 NE2G9       N/A
PUU OPAE*        N/A     63  54  72 NE2         N/A
PUU LUA*       NOT AVBL
MAKAHA RIDGE*    N/A     64  54  68 E1          N/A
$$

HIZ005>011-061700-
OAHU-

CITY           SKY/WX    TMP DP  RH WIND       PRES   REMARKS
HONOLULU       LGT RAIN  71  64  78 E14       30.02R
KALAELOA       MOCLDY    69  62  78 CALM      30.03R
KANEOHE MCB    PTCLDY    75  64  68 E8G18     30.01R
WHEELER FIELD  DRIZZLE   66  63  88 VRB5      30.03R
BELLOWS*         N/A    N/A N/A N/A E21         N/A
KAHUKU*          N/A    N/A N/A N/A E10G21      N/A
WHEELER*       NOT AVBL
WAIANAE HARBOR NOT AVBL
DILLINGHAM*      N/A     66  61  82 MISG        N/A
KAHUKU TRN*      N/A    N/A N/A N/A E12G26      N/A
KAWAILOA*        N/A     68  61  77 E9G20       N/A
KII*             N/A     73  66  78 E22G30      N/A
MAKUA RANGE*     N/A     72  59  64 E3G10       N/A
OAHU FOREST NW   N/A    N/A N/A N/A CALM        N/A
SCHOFIELD BRK*   N/A     63  57  82 VRB1        N/A
SCHOFIELD S*   NOT AVBL
WAIANAE VLY*     N/A     72  61  68 NE6G18      N/A
KUAOKALA*        N/A    N/A N/A N/A E9G17       N/A
HONOULIUULI*   NOT AVBL
MOKUOLOE IS*     N/A    N/A N/A N/A MISG        N/A
PALEHUA*         N/A     63  59  88 NE5G17      N/A
WAIAWA PHB*    NOT AVBL
$$

HIZ012>013-061700-
MOLOKAI-

CITY           SKY/WX    TMP DP  RH WIND       PRES   REMARKS
MOLOKAI AIRPT  MOCLDY    71  63  75 NE16G28   30.03R
KALAUPAPA      NOT AVBL
MAKAPULAPAI*     N/A     73  64  73 E20G31      N/A
MOLOKAI 1*       N/A     61  59  94 E3G12       N/A
PUU ALII*        N/A     56  56 100 CALM        N/A
$$

HIZ016-061700-
KAHOOLAWE-

CITY           SKY/WX    TMP DP  RH WIND       PRES   REMARKS
KAHOOLAWE*       N/A     66 N/A N/A E15G22      N/A
HAKIOAWA*        N/A     68  65  90 MISG      30.43S
HONOKANAIA*      N/A     74  64  70 NE18G35   30.01
KANELOA*         N/A     70  63  78 MISG      29.23S
KEALIALALO*      N/A     70  64  83 E18G35      N/A
LUA MAKIKA*    NOT AVBL
$$

HIZ014>015-061700-
LANAI-

CITY           SKY/WX    TMP DP  RH WIND       PRES   REMARKS
LANAI CITY     FAIR      65  61  87 SE8       30.05F
LANAI 1*         N/A     66  61  82 E8G24       N/A
$$

HIZ017>028-061700-
MAUI-

CITY           SKY/WX    TMP DP  RH WIND       PRES   REMARKS
KAHULUI        PTCLDY    72  64  76 NE14      30.02R
KAPALUA-W MAUI PTCLDY    72  63  73 E17G28    30.02
HANA AIRPORT   CLOUDY    73  64  73 E9        30.08R
HANA*            N/A     73 N/A N/A E8G16       N/A
HALEAKALA SUMM   N/A     48 -17   6 NE9G22      N/A
MAALAEA BAY*   NOT AVBL
HALEAKALA*     NOT AVBL
KAUPO GAP*       N/A     59  52  77 NE9G29      N/A
KULA 1*          N/A     45  34  65 E3          N/A
$$

HIZ023>026-061700-
BIG ISLAND OF HAWAII COAST AND LOWER SLOPES-

CITY           SKY/WX    TMP DP  RH WIND       PRES   REMARKS
KAILUA KONA    CLEAR     72  62  71 E7        29.96S
HILO           RAIN      67  64  90 E8        30.06R FOG
HONOKAA*       NOT AVBL
KAWAIHAE MWT*    N/A     75 N/A N/A E20G36      N/A
KAWAIHAE*        N/A     75 N/A N/A E15G24      N/A
SOUTH POINT*     N/A     64 N/A N/A NE13        N/A
UPOLU AIRPORT*   N/A    N/A N/A N/A E15G24      N/A
KAMUELA*       MOSUNNY   61  57  88 NE24      30.07S
HAKALAU*         N/A     46  46 100 SW5         N/A
KALOKO-HONOKO*   N/A     72  59  64 NE7       29.96R
PALI 2*          N/A     57  52  82 N10         N/A
KEALAKOMO*       N/A     72  57  60 N10G18      N/A
KAUPULEHU*       N/A     66  57  72 SE5G10      N/A
KAPAPALA*        N/A     57  51  80 N8          N/A
LOWER KAHUKU*    N/A     54  50  87 N3          N/A
PUHE CS*         N/A     75  61  60 E13G26      N/A
PUHO CS*         N/A     68  55  62 E3          N/A
PTA KEAMUKU*     N/A     55  45  67 CALM        N/A
WAIKOLOA*        N/A     70  59  68 E16G23      N/A
$$

HIZ027>028-061700-
BIG ISLAND OF HAWAII INTERIOR AND SUMMMITS-

CITY           SKY/WX    TMP DP  RH WIND       PRES   REMARKS
BRADSHAW FIELD CLOUDY    40  33  75 W5        30.26S
MK VISITOR CEN NOT AVBL
MAUNA KEA*       N/A     41 -15   9 SE9         N/A
MAUNA LOA*       N/A     43 -27   4 MISG        N/A
MAUNA LOA 1*   NOT AVBL
PTA KIPUKA*      N/A     45  41  87 SE3         N/A
PTA RANGE 17*    N/A     46  41  81 E13G25      N/A
PTA WEST*        N/A     55  43  62 SE17G26     N/A
NENE CABIN*      N/A    N/A N/A N/A N6          N/A
AHUMOA*          N/A     45  41  87 E7          N/A
PTA PORTABLE*  NOT AVBL
PUU MALI*        N/A    N/A N/A N/A SW7G14      N/A
$$

HIC003-061700-
NORTHWEST ISLANDS-

CITY           SKY/WX    TMP DP  RH WIND       PRES   REMARKS
MIDWAY ISLAND  CLEAR    N/A N/A N/A NE8       30.20R
MIDWAY NOS*    NOT AVBL
FRENCH FRIGATE NOT AVBL
$$

PHZ110>124-180-061700-
BUOY REPORTS

STATION/POSITION TIME  TEMP    WIND        PRES    WAVE   SWELL
                       AIR SEA DIR/SP/G            HT/PER HT/DIR
                 (UTC) (F)     (DEG/KT/KT) (MB)    (FT/S) (FT/D)
BUOY 51001       NOT AVBL
BUOY 51101       1600   74 76  100/ 14/ 17 1017.6R   7/ 9   5/ 90
BUOY 51100       NOT AVBL
BUOY 51002       1600   77 79   80/ 19/ 23 1013.8R   9/ 9   7/ 90
BUOY 51003       1600   77 79  100/ 12/ 16 1015.1S   8/ 8   7
BUOY 51004       1511   76 77   60/ 17/ 21 1014.5R   9/ 8   7/ 60
BARBERS PT BUOY  NOT AVBL
WAIMEA BAY BUOY  1600      77                N/A     5/13   2/360
KAILUA BAY BUOY  1600      77                N/A     8/ 8   2/ 50
LANAI BUOY       NOT AVBL
BARBERS PT 2     1600      77                N/A     5/18   3/200
PAUWELA MAUI     1600      76                N/A     7/ 8   2/360
HILO             1600      77                N/A     8/ 8   3/ 30
KANEOHE BAY BUOY 1600      76                N/A     7/ 7   2/ 10
HANALEI KAUAI    1600      78                N/A     7/ 8   2/ 50
KAHULUI HARBOR   1600   73 76   60/ 11/ 15 1016.3R
HONOLULU HARBOR  1600   75 77  110/  5/  7 1016.5R
KILO NALU        NOT AVBL
HILO HARBOR      1600   69 75  190/  4/  5 1016.9R
MOKUOLOE         1600   75 77  100/ 19/ 26 1016.5S
NAWILIWILI       1600   74 78   50/  8/ 12 1017.1R
WHOTS BUOY       NOT AVBL
BUOY 51028       NOT AVBL
$$

......................KEY........................................
  SKY/WX - SKY CONDITIONS/PRESENT WEATHER
  TMP    - TEMPERATURE IN FAHRENHEIT
  DWPT   - DEWPOINT IN FAHRENHEIT
  RH     - RELATIVE HUMIDITY IN PERCENT
  WIND   - DIRECTION AND SPEED /MPH FOR ISLANDS...KTS FOR BUOYS/
  PRES   - MEAN SEA LEVEL PRESSURE IN INCHES OF HG
  VSB    - VISIBILITY IN MILES
  HX     - HEAT INDEX
  WCI    - WIND CHILL INDEX
  VRB    - VARIABLE WIND DIRECTION
  N/A    - NOT AVAILABLE


USA.gov is the U.S. government's official web portal to all federal, state and local government web resources and services.